Total_Precipitation_Accumulation
0.12 0.22 0.25 0.25 0.23 0.19 0.15 0.13 0.23 0.27 0.40 0.50 0.54 0.67 0.83 1.01 0.99 0.93 0.76 0.67 0.75 0.75 0.80 0.83 0.84 0.93 0.88 0.89 0.95 1.10 1.29 1.39 1.51 1.53 1.51 1.51 1.57 1.60 1.61 1.69 1.68 1.76 1.82 1.84
0.16 0.20 0.25 0.28 0.27 0.20 0.14 0.12 0.17 0.26 0.41 0.54 0.61 0.70 0.78 0.78 0.72 0.64 0.58 0.48 0.47 0.64 0.74 0.71 0.71 0.75 0.70 0.75 0.89 1.04 1.14 1.24 1.45 1.58 1.62 1.62 1.66 1.75 1.78 1.76 1.77 1.80 1.77 1.81
0.26 0.25 0.26 0.35 0.34 0.25 0.16 0.15 0.21 0.33 0.51 0.68 0.57 0.60 0.67 0.67 0.67 0.61 0.60 0.46 0.42 0.51 0.67 0.68 0.69 0.68 0.76 0.88 1.01 1.12 1.26 1.40 1.57 1.68 1.78 1.79 1.76 1.87 1.83 1.83 1.88 1.84 1.78 1.78
0.33 0.44 0.53 0.38 0.31 0.30 0.29 0.27 0.28 0.40 0.43 0.58 0.58 0.64 0.76 0.76 0.75 0.60 0.54 0.47 0.46 0.47 0.50 0.56 0.63 0.68 0.82 1.11 1.35 1.41 1.55 1.73 1.82 1.90 1.86 1.84 1.85 1.88 1.96 2.04 2.07 2.05 2.00 1.91
0.49 0.63 0.54 0.46 0.33 0.36 0.41 0.55 0.56 0.64 0.62 0.57 0.57 0.69 0.79 0.67 0.61 0.61 0.51 0.48 0.51 0.56 0.58 0.67 0.73 0.75 0.95 1.18 1.48 1.65 1.70 1.80 1.93 2.02 2.05 2.07 2.09 2.06 2.13 2.25 2.20 2.12 2.07 2.08
0.62 0.76 0.75 0.63 0.48 0.48 0.59 1.04 0.87 0.80 0.82 0.71 0.68 0.82 0.91 0.83 0.75 0.70 0.63 0.60 0.61 0.64 0.76 0.94 1.01 1.02 1.15 1.27 1.42 1.60 1.67 1.78 1.96 2.19 2.24 2.26 2.42 2.49 2.43 2.38 2.24 2.25 2.24 2.22
0.77 0.84 0.90 0.76 0.69 0.72 1.13 1.42 1.10 0.93 0.90 0.89 1.00 1.03 0.96 0.85 0.85 0.78 0.68 0.70 0.69 0.73 0.88 1.11 1.24 1.27 1.37 1.51 1.60 1.61 1.69 1.82 2.03 2.22 2.31 2.38 2.54 2.61 2.56 2.51 2.46 2.41 2.35 2.40
0.93 1.11 1.27 0.89 0.85 1.26 1.53 1.28 1.28 1.27 1.19 1.07 1.05 1.00 0.96 0.86 0.84 0.79 0.75 0.81 0.84 0.89 1.04 1.24 1.41 1.38 1.44 1.52 1.57 1.62 1.63 1.74 1.88 2.06 2.09 2.17 2.43 2.52 2.57 2.59 2.53 2.44 2.38 2.27
1.24 1.36 1.24 1.04 1.11 1.28 1.42 1.57 1.48 1.38 1.39 1.20 1.16 1.07 0.97 0.89 0.85 0.82 0.78 0.85 0.91 0.98 1.14 1.37 1.53 1.56 1.63 1.53 1.61 1.66 1.68 1.82 1.97 2.05 2.09 2.20 2.30 2.33 2.40 2.46 2.41 2.30 2.33 2.28
1.41 1.45 1.37 1.22 1.08 1.01 1.15 1.27 1.25 1.25 1.25 1.21 1.18 1.12 1.02 0.91 0.83 0.83 0.83 0.79 0.84 0.95 1.02 1.12 1.32 1.49 1.60 1.67 1.72 1.74 1.76 1.82 1.91 2.03 2.04 2.08 2.20 2.29 2.38 2.47 2.54 2.44 2.32 2.23
1.68 1.59 1.46 1.45 1.32 1.21 1.28 1.34 1.26 1.20 1.17 1.18 1.15 1.10 0.96 0.93 0.91 0.88 0.86 0.82 0.84 0.92 0.94 1.00 1.10 1.22 1.32 1.45 1.58 1.64 1.70 1.76 1.78 1.82 1.92 2.01 2.03 2.09 2.08 2.17 2.21 2.20 2.14 2.11
2.02 1.77 1.61 1.57 1.43 1.31 1.37 1.34 1.42 1.50 1.45 1.24 1.13 1.20 1.12 0.99 0.90 0.88 0.89 0.89 0.90 0.91 0.90 0.93 1.00 1.16 1.27 1.38 1.53 1.65 1.72 1.75 1.68 1.64 1.70 1.76 1.80 1.77 1.77 1.72 1.74 1.72 1.73 1.74
1.66 1.48 1.44 1.43 1.40 1.32 1.31 1.25 1.25 1.37 1.39 1.27 1.23 1.22 1.26 1.15 1.06 0.99 0.91 0.84 0.87 0.92 0.91 0.93 0.98 1.10 1.19 1.29 1.41 1.53 1.62 1.69 1.68 1.65 1.68 1.69 1.70 1.69 1.71 1.66 1.58 1.52 1.50 1.50
1.46 1.41 1.42 1.36 1.30 1.30 1.31 1.23 1.12 1.14 1.20 1.23 1.27 1.31 1.43 1.35 1.21 1.13 1.07 0.97 0.89 0.89 0.88 0.91 1.00 1.03 1.12 1.19 1.26 1.34 1.43 1.50 1.61 1.71 1.74 1.77 1.79 1.82 1.88 1.92 1.84 1.66 1.51 1.43
1.56 1.44 1.35 1.22 1.22 1.28 1.26 1.19 1.12 1.09 1.20 1.36 1.33 1.30 1.35 1.27 1.20 1.13 1.06 0.99 0.96 0.94 0.97 0.98 1.02 1.04 1.12 1.21 1.28 1.31 1.35 1.39 1.40 1.46 1.56 1.65 1.64 1.66 1.74 1.82 1.84 1.73 1.57 1.46
1.67 1.53 1.34 1.21 1.26 1.38 1.42 1.37 1.27 1.16 1.10 1.24 1.34 1.26 1.23 1.16 1.06 1.08 1.10 1.09 1.13 1.13 1.13 1.13 1.16 1.11 1.17 1.25 1.32 1.36 1.33 1.36 1.36 1.34 1.34 1.38 1.42 1.48 1.56 1.65 1.69 1.63 1.53 1.42
1.71 1.67 1.50 1.33 1.26 1.29 1.34 1.36 1.30 1.22 1.12 1.13 1.20 1.23 1.23 1.17 1.07 1.05 1.08 1.10 1.15 1.16 1.16 1.20 1.26 1.27 1.33 1.37 1.40 1.41 1.34 1.31 1.31 1.30 1.32 1.33 1.37 1.43 1.46 1.51 1.56 1.49 1.37 1.24
1.57 1.51 1.41 1.31 1.21 1.18 1.19 1.19 1.18 1.17 1.13 1.13 1.15 1.16 1.18 1.23 1.24 1.18 1.11 1.11 1.12 1.09 1.05 1.06 1.15 1.23 1.35 1.48 1.53 1.50 1.37 1.27 1.20 1.20 1.27 1.33 1.36 1.43 1.46 1.44 1.40 1.34 1.25 1.10
1.42 1.38 1.32 1.23 1.20 1.18 1.17 1.14 1.14 1.14 1.10 1.06 1.14 1.24 1.25 1.24 1.32 1.29 1.21 1.23 1.29 1.30 1.16 1.06 1.14 1.12 1.20 1.42 1.58 1.59 1.46 1.33 1.23 1.20 1.21 1.23 1.25 1.31 1.35 1.32 1.24 1.16 1.09 1.04
1.43 1.43 1.43 1.39 1.30 1.27 1.22 1.13 1.13 1.13 1.13 1.13 1.15 1.22 1.30 1.27 1.33 1.39 1.38 1.32 1.32 1.39 1.37 1.27 1.15 1.06 1.06 1.27 1.58 1.53 1.46 1.35 1.22 1.12 1.13 1.17 1.20 1.26 1.27 1.23 1.15 1.09 1.05 1.02
1.52 1.57 1.53 1.48 1.40 1.29 1.19 1.11 1.15 1.19 1.18 1.21 1.21 1.23 1.30 1.28 1.25 1.35 1.47 1.34 1.23 1.33 1.41 1.37 1.17 1.05 1.04 1.22 1.52 1.51 1.42 1.35 1.23 1.11 1.09 1.11 1.14 1.21 1.23 1.20 1.14 1.05 1.03 1.03
1.75 1.76 1.63 1.46 1.39 1.28 1.18 1.13 1.12 1.13 1.17 1.24 1.24 1.27 1.41 1.43 1.38 1.34 1.30 1.27 1.23 1.35 1.36 1.31 1.21 1.12 1.04 1.10 1.21 1.30 1.23 1.15 1.07 0.99 0.96 0.99 1.06 1.12 1.16 1.17 1.14 1.10 1.10 1.11
1.73 1.67 1.57 1.40 1.34 1.19 1.05 1.03 1.04 1.06 1.12 1.23 1.34 1.43 1.63 1.64 1.55 1.58 1.37 1.11 1.09 1.24 1.23 1.15 1.16 1.10 1.02 0.97 1.06 1.13 1.10 1.07 1.00 0.90 0.82 0.85 0.93 0.99 1.06 1.04 1.04 1.05 1.02 0.98
1.51 1.43 1.35 1.24 1.25 1.20 1.13 1.10 1.08 1.12 1.14 1.17 1.26 1.40 1.61 1.75 1.55 1.30 1.21 1.18 1.14 1.13 1.07 1.08 1.09 1.07 1.03 0.95 0.98 1.06 1.11 1.13 1.09 1.03 0.93 0.94 0.95 0.98 1.02 0.99 0.96 0.95 0.92 0.93
1.46 1.27 1.17 1.22 1.34 1.40 1.33 1.26 1.25 1.30 1.30 1.27 1.25 1.31 1.43 1.65 1.65 1.30 1.08 1.01 1.06 1.04 0.98 1.06 1.10 1.10 0.96 0.87 0.91 1.03 1.12 1.17 1.19 1.14 1.10 1.13 1.10 1.08 1.08 1.05 1.05 1.04 1.01 0.99
1.42 1.29 1.24 1.26 1.32 1.41 1.45 1.47 1.53 1.57 1.59 1.63 1.59 1.49 1.51 1.59 1.52 1.32 1.10 0.96 0.96 1.02 0.97 1.04 1.10 1.10 0.96 0.90 0.92 1.00 1.07 1.14 1.19 1.21 1.20 1.16 1.14 1.16 1.18 1.15 1.13 1.09 1.02 0.95
1.43 1.31 1.27 1.27 1.30 1.39 1.53 1.67 1.77 1.81 1.87 2.01 1.99 1.71 1.62 1.67 1.64 1.50 1.28 1.14 1.16 1.19 1.16 1.11 1.04 1.00 1.02 1.06 1.04 0.98 1.01 1.11 1.12 1.15 1.21 1.17 1.13 1.11 1.11 1.08 1.03 0.98 0.90 0.82